• In Hungary
  • List of Countries
  • For 7 days
  • Water Temperature
  • Satellite Maps
  • Weather Map
  • News
  • Weather Widgets
  • user-avatar
    Login

    Hourly Weather Gweru

    Today, 20 August, Sunday

    Time Temperature Precipitation Wind Pressure Humidity
    00:00 +10°C° 0 mm 4 mps 648 mmHg 74%
    01:00 +10°C° 0 mm 4 mps 648 mmHg 75%
    02:00 +8°C° 0 mm 4 mps 648 mmHg 77%
    03:00 +8°C° 0 mm 4 mps 648 mmHg 80%
    04:00 +8°C° 0 mm 4 mps 648 mmHg 83%
    05:00 +7°C° 0 mm 4 mps 647 mmHg 85%
    06:00 +8°C° 0 mm 5 mps 648 mmHg 83%
    07:00 +9°C° 0 mm 5 mps 648 mmHg 80%
    08:00 +9°C° 0 mm 5 mps 649 mmHg 77%
    09:00 +12°C° 0 mm 5 mps 649 mmHg 70%
    10:00 +14°C° 0 mm 5 mps 650 mmHg 62%
    11:00 +16°C° 0 mm 5 mps 650 mmHg 54%
    12:00 +18°C° 0 mm 4 mps 650 mmHg 49%
    13:00 +20°C° 0 mm 4 mps 650 mmHg 44%
    14:00 +21°C° 0 mm 4 mps 649 mmHg 40%
    15:00 +20°C° 0 mm 4 mps 649 mmHg 42%
    16:00 +19°C° 0 mm 4 mps 648 mmHg 44%
    17:00 +19°C° 0 mm 4 mps 648 mmHg 46%
    18:00 +17°C° 0 mm 4 mps 648 mmHg 53%
    19:00 +14°C° 0 mm 4 mps 648 mmHg 60%
    20:00 +12°C° 0 mm 4 mps 648 mmHg 67%
    21:00 +12°C° 0 mm 4 mps 648 mmHg 69%
    22:00 +11°C° 0 mm 4 mps 648 mmHg 71%
    23:00 +10°C° 0 mm 3 mps 648 mmHg 73%

    Tomorrow, 21 August, Monday

    Time Temperature Precipitation Wind Pressure Humidity
    00:00 +10°C° 0 mm 3 mps 647 mmHg 74%
    01:00 +9°C° 0 mm 3 mps 647 mmHg 75%
    02:00 +9°C° 0 mm 3 mps 647 mmHg 77%
    03:00 +8°C° 0 mm 2 mps 647 mmHg 78%
    04:00 +8°C° 0 mm 2 mps 646 mmHg 79%
    05:00 +8°C° 0 mm 2 mps 646 mmHg 80%
    06:00 +9°C° 0 mm 2 mps 647 mmHg 74%
    07:00 +10°C° 0 mm 3 mps 647 mmHg 67%
    08:00 +11°C° 0 mm 3 mps 648 mmHg 61%
    09:00 +14°C° 0 mm 3 mps 649 mmHg 51%
    10:00 +18°C° 0 mm 3 mps 649 mmHg 41%
    11:00 +21°C° 0 mm 3 mps 650 mmHg 32%
    12:00 +22°C° 0 mm 3 mps 649 mmHg 29%
    13:00 +24°C° 0 mm 3 mps 648 mmHg 26%
    14:00 +25°C° 0 mm 3 mps 648 mmHg 24%
    15:00 +24°C° 0 mm 3 mps 647 mmHg 24%
    16:00 +24°C° 0 mm 3 mps 647 mmHg 25%
    17:00 +22°C° 0 mm 3 mps 646 mmHg 26%
    18:00 +20°C° 0 mm 3 mps 646 mmHg 30%
    19:00 +18°C° 0 mm 3 mps 646 mmHg 35%
    20:00 +16°C° 0 mm 3 mps 646 mmHg 40%
    21:00 +14°C° 0 mm 3 mps 646 mmHg 43%
    22:00 +14°C° 0 mm 2 mps 646 mmHg 47%
    23:00 +13°C° 0 mm 2 mps 646 mmHg 50%

    Day after tomorrow, 22 August, Tuesday

    Time Temperature Precipitation Wind Pressure Humidity
    00:00 +13°C° 0 mm 2 mps 645 mmHg 52%
    01:00 +12°C° 0 mm 2 mps 645 mmHg 54%
    02:00 +11°C° 0 mm 1 mps 644 mmHg 56%
    03:00 +11°C° 0 mm 1 mps 644 mmHg 57%
    04:00 +11°C° 0 mm 1 mps 643 mmHg 59%
    05:00 +10°C° 0 mm 1 mps 643 mmHg 60%
    06:00 +12°C° 0 mm 1 mps 644 mmHg 54%
    07:00 +14°C° 0 mm 1 mps 645 mmHg 48%
    08:00 +15°C° 0 mm 1 mps 646 mmHg 42%
    09:00 +20°C° 0 mm 1 mps 647 mmHg 35%
    10:00 +23°C° 0 mm 1 mps 647 mmHg 29%
    11:00 +26°C° 0 mm 1 mps 648 mmHg 22%
    12:00 +27°C° 0 mm 2 mps 647 mmHg 19%
    13:00 +28°C° 0 mm 2 mps 647 mmHg 16%
    14:00 +29°C° 0 mm 2 mps 646 mmHg 14%
    15:00 +28°C° 0 mm 2 mps 646 mmHg 13%
    16:00 +28°C° 0 mm 2 mps 645 mmHg 13%
    17:00 +27°C° 0 mm 2 mps 645 mmHg 13%
    18:00 +25°C° 0 mm 2 mps 644 mmHg 15%
    19:00 +21°C° 0 mm 2 mps 644 mmHg 18%
    20:00 +19°C° 0 mm 1 mps 644 mmHg 21%
    21:00 +19°C° 0 mm 1 mps 644 mmHg 22%
    22:00 +18°C° 0 mm 1 mps 644 mmHg 23%
    23:00 +16°C° 0 mm 1 mps 644 mmHg 24%

    23 August, Wednesday

    Time Temperature Precipitation Wind Pressure Humidity
    00:00 +16°C° 0 mm 1 mps 643 mmHg 25%
    01:00 +15°C° 0 mm 1 mps 643 mmHg 26%
    02:00 +15°C° 0 mm 1 mps 642 mmHg 26%
    03:00 +14°C° 0 mm 0 mps 642 mmHg 26%
    04:00 +13°C° 0 mm 0 mps 642 mmHg 27%
    05:00 +13°C° 0 mm 0 mps 642 mmHg 27%
    06:00 +16°C° 0 mm 1 mps 643 mmHg 24%
    07:00 +19°C° 0 mm 1 mps 644 mmHg 21%
    08:00 +21°C° 0 mm 1 mps 645 mmHg 19%
    09:00 +24°C° 0 mm 2 mps 646 mmHg 16%
    10:00 +26°C° 0 mm 2 mps 646 mmHg 14%
    11:00 +28°C° 0 mm 3 mps 646 mmHg 12%
    12:00 +29°C° 0 mm 3 mps 646 mmHg 10%
    13:00 +30°C° 0 mm 3 mps 646 mmHg 9%
    14:00 +31°C° 0 mm 2 mps 645 mmHg 8%
    15:00 +30°C° 0 mm 3 mps 645 mmHg 9%
    16:00 +29°C° 0 mm 3 mps 644 mmHg 9%
    17:00 +28°C° 0 mm 3 mps 644 mmHg 10%
    18:00 +25°C° 0 mm 3 mps 644 mmHg 16%
    19:00 +22°C° 0 mm 3 mps 644 mmHg 21%
    20:00 +19°C° 0 mm 3 mps 643 mmHg 27%
    21:00 +18°C° 0 mm 2 mps 643 mmHg 33%
    22:00 +17°C° 0 mm 2 mps 643 mmHg 39%
    23:00 +16°C° 0 mm 2 mps 643 mmHg 44%

    24 August, Thursday

    Time Temperature Precipitation Wind Pressure Humidity
    00:00 +15°C° 0 mm 2 mps 642 mmHg 47%
    01:00 +15°C° 0 mm 2 mps 642 mmHg 49%
    02:00 +14°C° 0 mm 2 mps 642 mmHg 52%
    03:00 +14°C° 0 mm 1 mps 642 mmHg 53%
    04:00 +14°C° 0 mm 1 mps 641 mmHg 54%
    05:00 +13°C° 0 mm 1 mps 641 mmHg 55%
    06:00 +15°C° 0 mm 1 mps 642 mmHg 47%
    07:00 +17°C° 0 mm 2 mps 643 mmHg 40%
    08:00 +19°C° 0 mm 2 mps 644 mmHg 33%
    09:00 +23°C° 0 mm 2 mps 644 mmHg 26%
    10:00 +26°C° 0 mm 3 mps 645 mmHg 19%
    11:00 +29°C° 0 mm 3 mps 645 mmHg 12%
    12:00 +30°C° 0 mm 3 mps 645 mmHg 11%
    13:00 +32°C° 0 mm 4 mps 644 mmHg 9%
    14:00 +33°C° 0 mm 4 mps 644 mmHg 7%
    15:00 +31°C° 0 mm 3 mps 644 mmHg 8%
    16:00 +31°C° 0 mm 3 mps 643 mmHg 8%
    17:00 +30°C° 0 mm 3 mps 643 mmHg 8%
    18:00 +27°C° 0 mm 2 mps 643 mmHg 10%
    19:00 +25°C° 0 mm 2 mps 643 mmHg 11%
    20:00 +22°C° 0 mm 1 mps 642 mmHg 13%
    21:00 +21°C° 0 mm 1 mps 642 mmHg 14%
    22:00 +20°C° 0 mm 1 mps 642 mmHg 14%
    23:00 +19°C° 0 mm 1 mps 643 mmHg 15%

    25 August, Friday

    Time Temperature Precipitation Wind Pressure Humidity
    00:00 +19°C° 0 mm 1 mps 642 mmHg 15%
    01:00 +18°C° 0 mm 1 mps 642 mmHg 15%
    02:00 +16°C° 0 mm 1 mps 642 mmHg 15%
    03:00 +16°C° 0 mm 1 mps 642 mmHg 16%
    04:00 +16°C° 0 mm 1 mps 642 mmHg 17%
    05:00 +16°C° 0 mm 1 mps 642 mmHg 19%
    06:00 +19°C° 0 mm 1 mps 643 mmHg 18%
    07:00 +20°C° 0 mm 2 mps 644 mmHg 17%
    08:00 +21°C° 0 mm 2 mps 645 mmHg 17%
    09:00 +26°C° 0 mm 2 mps 646 mmHg 14%
    10:00 +29°C° 0 mm 2 mps 646 mmHg 11%
    11:00 +32°C° 0 mm 2 mps 647 mmHg 8%
    12:00 +32°C° 0 mm 2 mps 647 mmHg 7%
    13:00 +34°C° 0 mm 2 mps 646 mmHg 7%
    14:00 +35°C° 0 mm 2 mps 646 mmHg 6%
    15:00 +33°C° 0 mm 3 mps 646 mmHg 11%
    16:00 +30°C° 0 mm 4 mps 645 mmHg 16%
    17:00 +28°C° 0 mm 4 mps 645 mmHg 20%
    18:00 +25°C° 0 mm 4 mps 645 mmHg 34%
    19:00 +22°C° 0 mm 5 mps 644 mmHg 47%
    20:00 +19°C° 0 mm 5 mps 644 mmHg 61%
    21:00 +17°C° 0 mm 5 mps 644 mmHg 67%
    22:00 +15°C° 0 mm 5 mps 645 mmHg 73%
    23:00 +14°C° 0 mm 5 mps 645 mmHg 79%
    Show more